FW1555 Weather Reports


time (UTC)temp
F
wind
direction
speed
knots
gust
knots
rain 1hr
in
rain 24hr
in
rain mn
in
humidity
%
barometer
mb
20260510140044 55 0 0.0 1.7 0.00 0.32 0.00 97 1012.9
20260510134549 55 0 0.0 0.0 0.00 0.32 0.00 98 1013.0
20260510133049 54 0 0.0 0.0 0.00 0.32 0.00 98 1012.8
20260510131548 54 0 0.0 0.0 0.00 0.32 0.00 99 1012.7
20260510130047 54 0 0.0 0.0 0.00 0.32 0.00 99 1012.4
20260510124549 53 0 0.0 0.0 0.00 0.32 0.00 99 1012.5
20260510123048 53 0 0.0 0.0 0.00 0.32 0.00 99 1012.2
20260510121550 53 0 0.0 0.0 0.00 0.32 0.00 99 1012.1
20260510120048 52 0 0.0 0.0 0.00 0.32 0.00 99 1012.1
20260510114606 52 0 0.0 0.0 0.00 0.32 0.00 99 1012.1
20260510113053 52 0 0.0 0.0 0.00 0.32 0.00 99 1011.9
20260510111543 52 0 0.0 0.9 0.00 0.32 0.00 100 1011.6
20260510110047 52 0 0.0 0.0 0.00 0.32 0.00 99 1011.4
20260510104555 52 0 0.0 0.0 0.00 0.32 0.00 99 1011.3
20260510103047 52 0 0.0 1.7 0.00 0.32 0.00 99 1011.3
20260510101543 52 0 0.0 2.6 0.00 0.32 0.00 99 1011.4
20260510100059 52 0 0.0 4.3 0.00 0.32 0.00 99 1011.2
20260510094600 52 0 0.0 1.7 0.00 0.32 0.00 99 1011.2
20260510093050 52 0 0.0 0.0 0.00 0.32 0.00 99 1011.4
20260510091550 52 0 0.0 0.0 0.00 0.32 0.00 99 1011.5
20260510090045 52 0 0.0 0.0 0.00 0.32 0.00 99 1011.7
20260510084549 52 0 0.0 0.0 0.00 0.32 0.00 99 1011.7
20260510083049 52 0 0.0 0.0 0.00 0.32 0.00 99 1011.8
20260510081550 52 0 0.0 0.0 0.00 0.32 0.00 99 1011.6
20260510080050 52 0 0.0 0.0 0.00 0.32 0.00 99 1011.5
20260510074545 52 0 0.0 0.0 0.00 0.32 0.00 99 1010.7
20260510073049 52 0 0.0 0.0 0.00 0.32 0.00 99 1010.8
20260510071549 52 0 0.0 0.0 0.00 0.32 0.00 99 1010.9
20260510070106 52 0 0.0 0.0 0.00 0.32 0.00 99 1011.0
20260510064555 52 0 0.0 0.0 0.00 0.32 0.00 99 1011.0
20260510063045 52 0 0.0 0.0 0.00 0.32 0.00 99 1011.2
20260510061543 52 0 0.0 0.0 0.00 0.32 0.00 99 1011.1
20260510060051 52 0 0.0 0.0 0.00 0.32 0.00 99 1010.9
20260510054548 52 0 0.0 0.0 0.00 0.32 0.00 99 1010.7
20260510053048 52 0 0.0 0.0 0.00 0.32 0.00 99 1010.8
20260510051547 52 0 0.0 0.0 0.00 0.32 0.00 99 1011.0
20260510050051 52 0 0.0 0.0 0.00 0.32 0.00 98 1010.9
20260510044551 52 0 0.0 0.0 0.00 0.32 0.00 99 1011.1
20260510043044 52 0 0.0 0.0 0.00 0.32 0.00 99 1011.0
20260510041555 52 0 0.0 0.0 0.00 0.32 0.00 98 1010.9
20260510040052 52 0 0.0 0.0 0.00 0.32 0.00 98 1011.1
20260510034549 52 0 0.0 0.0 0.00 0.32 0.32 99 1010.7
20260510033107 52 0 0.0 0.0 0.00 0.32 0.32 98 1010.6
20260510031549 52 0 0.0 0.0 0.00 0.32 0.32 98 1010.5
20260510030049 52 0 0.0 0.0 0.00 0.32 0.32 98 1010.6
20260510024545 52 0 0.0 0.0 0.00 0.32 0.32 98 1010.8
20260510023045 52 0 0.0 0.0 0.00 0.32 0.32 98 1010.9
20260510021545 52 0 0.0 0.0 0.00 0.32 0.32 98 1010.7
20260510020049 52 0 0.0 0.0 0.00 0.32 0.32 98 1010.8
20260510014551 53 0 0.0 0.0 0.00 0.32 0.32 98 1010.8
20260510013048 53 0 0.0 0.0 0.00 0.32 0.32 98 1010.7
20260510011549 53 0 0.0 0.0 0.00 0.32 0.32 98 1010.4
20260510010059 52 0 0.0 0.0 0.00 0.32 0.32 97 1010.3
20260510004556 53 0 0.0 0.0 0.00 0.32 0.32 97 1010.1
20260510003058 53 0 0.0 0.0 0.00 0.32 0.32 97 1010.2
20260510001548 53 0 0.0 0.0 0.00 0.32 0.32 97 1010.2
20260510000053 54 0 0.0 0.0 0.00 0.32 0.32 96 1010.0
20260509234600 54 0 0.0 0.0 0.00 0.32 0.32 97 1009.8
20260509233049 55 0 0.0 0.0 0.00 0.32 0.32 97 1009.7
20260509231548 55 0 0.0 0.9 0.00 0.32 0.32 97 1009.8
20260509230047 55 0 0.0 0.0 0.01 0.32 0.32 97 1010.2
20260509224547 55 0 0.0 0.0 0.03 0.32 0.32 98 1010.1
20260509223056 54 0 0.0 0.0 0.09 0.32 0.32 97 1010.1
20260509221550 54 0 0.0 0.0 0.12 0.32 0.32 97 1010.2
20260509220057 54 0 0.0 0.9 0.15 0.31 0.31 96 1010.6
20260509214548 55 0 0.0 0.0 0.14 0.28 0.28 96 1010.5
20260509213050 55 0 0.0 0.0 0.11 0.23 0.23 96 1010.6
20260509211550 55 0 0.0 0.0 0.10 0.20 0.20 96 1010.4
20260509210051 55 0 0.0 0.0 0.06 0.16 0.16 95 1010.4
20260509204558 55 0 0.0 0.0 0.04 0.14 0.14 94 1010.7
20260509203049 56 0 0.0 0.9 0.03 0.12 0.12 94 1011.1
20260509201548 56 0 0.0 0.0 0.01 0.10 0.10 94 1010.8
20260509200054 56 0 0.0 0.0 0.01 0.10 0.10 94 1010.8
20260509194546 57 0 0.0 0.0 0.02 0.10 0.10 94 1010.7
20260509193056 56 0 0.0 0.0 0.02 0.09 0.09 93 1010.7
20260509191555 56 0 0.0 0.0 0.07 0.09 0.09 93 1010.7
20260509190052 56 0 0.0 0.0 0.09 0.09 0.09 92 1010.8
20260509184547 56 0 0.0 3.5 0.08 0.08 0.08 91 1011.1
20260509183055 57 0 0.0 8.7 0.07 0.07 0.07 88 1011.0
20260509181603 59 238 4.3 10.4 0.02 0.02 0.02 81 1011.3
20260509180049 62 271 5.2 11.3 0.00 0.00 0.00 69 1010.7
20260509174556 63 250 0.9 7.8 0.00 0.00 0.00 69 1010.4
20260509173049 63 243 2.6 9.6 0.00 0.00 0.00 69 1010.2
20260509171552 63 0 0.9 4.3 0.00 0.00 0.00 71 1010.3
20260509170047 62 244 0.9 4.3 0.00 0.00 0.00 72 1010.6
20260509164547 62 0 0.0 8.7 0.00 0.00 0.00 72 1010.8
20260509163055 62 272 0.0 2.6 0.00 0.00 0.00 73 1010.8
20260509161548 62 246 2.6 7.8 0.00 0.00 0.00 75 1011.2
20260509160048 61 169 0.9 7.8 0.00 0.00 0.00 77 1011.6
20260509154558 61 245 0.0 3.5 0.00 0.00 0.00 81 1011.7
20260509153046 60 0 0.0 4.3 0.00 0.00 0.00 83 1011.7
20260509151547 59 0 0.0 0.0 0.00 0.00 0.00 84 1011.5
20260509150045 58 0 0.0 3.5 0.00 0.00 0.00 85 1011.8
20260509144600 58 0 0.0 3.5 0.00 0.00 0.00 84 1011.7
20260509143046 58 0 0.0 1.7 0.00 0.00 0.00 85 1011.6
20260509141547 57 0 0.0 2.6 0.00 0.00 0.00 86 1011.6